Find Starlink 11615

NORAD ID: 63274 Int'l Des: 2025-053 Owner: SPXS Country: US Constellation: starlink operational
又名: STARLINK-11615 [DTC] celestrak
LEOCIRCULAR

当前视图

正在加载3D地球...

About Starlink 11615

Starlink 11615 (NORAD 63274) is a starlink constellation satellite (v2 mini d2c) launched Mar 15, 2025 by SPXS of US. It operates in LEO, CIRCULAR orbit with a mass of 960.00 kg.

即将过境

Passes for default location (London). Set your location on the main map for personalized predictions.

高度历史

Loading altitude history...

两行轨道根数

1 63274U 25053K 26235.88432379 .00160214 00000-0 12228-2 0 9990
2 63274 42.9997 184.5461 0001533 237.5433 122.5287 15.70944440 83963
Epoch: Aug 23, 2026 • Age: 13 hours

当前状态

高度 357.5 km
远地点 / 近地点 N/A
速度 7.70 km/s
星下点 34.34°N, 167.48°W
发射日期 Mar 15, 2025
运行时间 1.4 years
类型 internet

技术详情

分类 Payload
质量 960.00 kg
干质量 910.00 kg
总质量 960.00 kg
长度 0.30 m
直径 4.10 m
跨度 29.00 m
形状 Box + pan
制造商 SPXS
平台类型 Starlink V2MD
阶段状态 In Orbit
所有者/国家 SPXS/US

Most Searched